2020-003A (45016 NORAD) Tracking and Keplerian Element Data

This shows tracking and keplerian element data for the satellite.

Feedback or suggestion? Click here.




ElementValue
Catalog45016
Name2020-003A
Epoch Orbit1205
Epoch Day94.12459205
Epoch Year2020
RAAN161.6279
Inclination97.3237
Eccentricity0.0012315
Argument of Perigee358.3543
Mean Anonmoly1.7653
Mean Motion15.27104161
Decay Rate7.39E-06
L11 45016U 20003A 20094.12459205 .00000739 00000-0 30484-4 0 9996
L22 45016 97.3237 161.6279 0012315 358.3543 1.7653 15.27104161 12052

Live tracking and technical data element details for 2020-003A (NORAD 45016). 2020-003A can be tracked NOW for your location showing map with azimuth and elevation plus other details from your city location.

Track the satellite on the map from your city or location and see movement details for azimuth, elevation, latitude, longitude, range, height, and movement on the map or in text.







IsCatalogInMostPopularTable: catalog: 45016, numindb: 17
Update: records affected: 1



GetName: 45016 2020-003A

Hit Count: updated at: Sun, 05 Apr 2020 19:51:04 GMT